SCP
0 0 0 0 0 0 0 0 0 0 0 0 0 0 0 0 0 0 0 0 0 0 0 0 0 0 0 0 0 0 0 0 0 0 0 0 0 0 0 0 0 0 0 0 0 0 0 0 0 0 0 0 0 0
0 0 0 0 0 0 0 0 0 0 0 0 0 0 0 0 0 0 0 0 0 0 0 0 0 0 0 0 0 0 0 0 0 0 0 0 0 0 0 0 0 0 0 0 0 0 0 0 0 0 0 0 0 0
0 0 0 0 0 0 0 0 0 0 0 0 0 0 0 0 0 0 0 0 0 0 0 0 0 0 0 0 0 0 0 0 0 0 0 0 0 0 0 0 0 0 0 0 0 0 0 0 0 0 0 0 0 0
0 0 0 0 0 0 0 0 0 0 0 0 0 0 0 0 0 0 0 0 0 0 0 0 0 0 0 0 0 0 0 0 0 0 0 0 0 0 0 0 0 0 0 0 0 0 0 0 0 0 0 0 0 0
0 0 0 0 0 0 0 0 0 0 0 0 0 0 0 0 0 0 0 0 0 0 0 0 0 0 0 0 0 0 0 0 0 0 0 0 0 0 0 0 0 0 0 0 0 0 0 0 0 0 0 0 0 0
0 0 0 0 0 0 0 0 0 0 0 0 0 0 0 0 0 0 0 0 0 0 0 0 0 0 0 0 0 0 0 0 0 0 0 0 0 0 0 0 0 0 0 0 0 0 0 0 0 0 0 0 0 0
0 0 0 0 0 0 0 0 0 0 0 0 0 0 0 0 0 0 0 0 0 0 0 0 0 0 0 0 0 0 0 0 0 0 0 0 0 0 0 0 0 0 0 0 0 0 0 0 0 0 0 0 0 0
0 0 0 0 0 0 0 0 0 0 0 0 0 0 0 0 0 0 0 0 0 0 0 0 0 0 0 0 0 0 0 0 0 0 0 0 0 0 0 0 0 0 0 0 0 0 0 0 0 0 0 0 0 0
0 0 0 0 0 0 0 0 0 0 0 0 0 0 0 0 0 0 0 0 0 0 0 0 0 0 0 0 0 0 0 0 0 0 0 0 0 0 0 0 0 0 0 0 0 0 0 0 0 0 0 0 0 0
0 0 0 0 0 0 0 0 0 0 0 0 0 0 0 0 0 0 0 0 0 0 0 0 0 0 0 0 0 0 0 0 0 0 0 0 0 0 0 0 0 0 0 0 0 0 0 0 0 0 0 0 0 0
0 0 0 0 0 0 0 0 0 0 0 0 0 0 0 0 0 0 0 0 0 0 0 0 0 0 0 0 0 0 0 0 0 0 0 0 0 0 0 0 0 0 0 0 0 0 0 0 0 0 0 0 0 0
0 0 0 0 0 0 0 0 0 0 0 0 0 0 0 0 0 0 0 0 0 0 0 0 0 0 0 0 0 0 0 0 0 0 0 0 0 0 0 0 0 0 0 0 0 0 0 0 0 0 0 0 0 0
0 -0 0 0 0 0 0 0 0 0 0 0 0 0 0 0 0 0 0 0 0 0 0 0 0 0 0 0 0 0 0 0 0 0 0 0 0 0 0 0 0 0 0 0 0 0 0 0 0 0 0 0 0 0
-0 0 -0 0 0 0 0 0 0 0 0 0 0 0 0 0 0 0 0 0 0 0 0 0 0 0 0 0 0 0 0 0 0 0 0 0 0 0 0 0 0 0 0 0 0 0 0 0 0 0 0 0 0 0
0 0 0 0 0 0 0 0 0 0 0 0 0 0 0 0 0 0 0 0 0 0 0 0 0 0 0 0 0 0 0 0 0 0 0 0 0 0 0 0 0 0 0 0 0 0 0 0 0 0 0 0 0 0
0 0 0 0 0 0 0 0 0 0 0 0 0 0 0 0 0 0 0 0 0 0 0 0 0 0 0 0 0 0 0 0 0 0 0 0 0 0 0 0 0 0 0 0 0 0 0 0 0 0 0 0 0 0
0 0 0 0 0 0 0 0 0 0 0 0 0 0 0 0 0 0 0 0 0 0 0 0 0 0 0 0 0 0 0 0 0 0 0 0 0 0 0 0 0 0 0 0 0 0 0 0 0 0 0 0 0 -0
0 0 0 0 0 0 0 0 0 0 0 0 0 0 0 0 0 0 0 0 0 0 0 0 0 0 0 0 0 0 0 0 0 0 0 0 0 0 0 0 0 0 0 0 0 0 0 0 0 0 0 0 -0 0
0 0 0 0 0 0 0 0 0 0 0 0 0 0 0 0 0 0 0 0 0 0 0 0 0 0 0 0 0 0 0 0 0 0 0 0 0 0 0 0 0 0 0 0 0 0 0 0 0 -0 -0 0 0 0
0 -0 -0 -0 0 0 0 0 0 0 0 0 0 0 0 0 0 0 0 0 0 0 0 0 0 0 0 0 0 0 0 0 0 0 0 0 0 0 0 0 0 0 0 0 0 0 0 -0 -0 -0 0 0 0 0
0 0 0 0 0 0 0 0 0 0 0 0 0 0 0 0 0 0 0 0 0 0 0 0 0 0 0 0 0 0 0 0 0 0 0 0 0 0 0 0 0 0 0 0 0 -0 -0 -0 0 0 0 0 0 0
0 0 0 0 0 0 0 0 0 0 0 0 0 0 0 0 0 0 0 0 0 0 0 0 0 0 0 0 0 0 0 0 0 0 0 0 0 0 0 0 0 0 0 0 -0 -0 -0 0 0 0 0 0 0 0
0 0 0 0 0 0 0 0 0 0 0 0 0 0 0 0 0 0 0 0 0 0 0 0 0 0 0 0 0 0 0 0 0 0 0 0 0 0 0 0 0 0 -0 -0 -0 -0 0 0 0 0 0 0 0 0
0 0 0 0 0 0 0 0 0 0 0 0 0 0 0 0 0 0 0 0 0 0 0 0 0 0 0 0 0 0 0 0 0 0 0 0 0 0 0 0 -0 -0 -0 -0 -0 -0 -0 -0 0 0 0 0 0 0
-0 0 0 0 0 0 0 0 0 0 0 0 0 0 0 0 0 0 0 0 0 0 0 0 0 0 0 0 0 0 0 0 0 0 0 0 0 0 0 0 -0 -0 -0 -0 -0 -0 -0 -0 -0 0 0 0 0 0
-0 0 0 0 0 0 0 0 0 0 0 0 0 0 0 0 0 0 0 0 0 0 0 0 0 0 0 0 0 0 -0 -0 0 -0 -0 0 0 0 0 -0 -0 -0 -0 -0 -0 -0 -0 0 0 0 0 0 0 0
0 0 0 -0 -0 -0 0 0 0 0 0 0 0 0 0 0 0 0 0 0 0 0 0 0 0 0 0 0 -0 -0 -0 0 0 0 0 0 0 0 0 -0 -0 -0 0 0 -0 -0 0 0 0 0 0 0 0 0
-0 0 -0 0 0 0 0 0 0 0 0 0 0 0 0 0 0 0 0 0 0 0 0 0 0 0 -0 -0 0 0 0 0 0 0 0 0 0 0 0 -0 -0 -0 0 0 0 0 0 0 0 0 0 0 0 0
0 0 -0 -0 -0 -0 0 0 0 0 0 0 0 0 0 0 0 0 0 0 0 0 0 0 -0 -0 0 0 0 0 0 0 0 0 0 0 0 0 0 0 0 0 0 0 0 0 0 0 0 0 0 0 0 0
0 -0 0 -0 -0 -0 -0 -0 -0 -0 0 0 0 -0 -0 0 0 0 0 0 0 0 -0 0 0 0 0 0 0 0 -0 0 0 0 0 0 0 0 0 0 0 0 0 0 0 0 0 0 0 0 0 0 0 0
0 0 0 0 0 -0 0 0 -0 -0 -0 -0 -0 -0 -0 0 0 0 0 0 0 0 0 0 0 0 0 0 0 0 0 0 0 0 0 0 0 0 0 0 0 0 0 0 0 0 0 0 0 0 0 0 0 0
0 -0 -0 0 0 0 0 0 0 0 0 0 0 -0 0 0 0 0 0 0 0 0 0 0 0 0 0 0 0 0 0 0 0 0 0 0 0 0 0 0 0 0 0 0 0 0 0 0 0 0 0 0 0 0
0 0 0 0 0 0 0 0 0 0 0 0 0 0 0 0 0 0 0 0 0 0 0 0 0 0 0 0 0 0 0 0 0 0 0 0 0 0 0 0 0 0 0 0 0 0 0 0 0 0 0 0 0 0
Wind_Speed_500mb
57 57 55 53 55 53 54 55 53 56 47 46 46 49 59 56 47 52 62 59 60 32 52 37 48 39 22 24 9 12 5 4 6 4 7 7 7 8 2 8 7 8 7 6 5 2 15 11 3 9 10 30 39 35
57 57 57 59 58 56 56 58 53 53 53 55 58 52 42 40 64 46 55 55 50 53 28 37 68 72 66 54 35 36 21 16 22 5 1 3 4 2 6 7 4 6 11 9 18 11 6 11 26 67 64 54 64 50
59 57 61 59 63 64 63 60 57 56 58 54 49 57 56 54 51 57 61 61 52 50 51 48 65 83 60 61 55 36 30 47 35 31 12 8 12 7 6 12 8 10 19 17 21 23 30 59 69 67 66 66 65 58
61 65 63 62 65 61 61 60 59 62 58 53 54 56 55 47 44 45 53 59 54 32 15 32 44 61 71 65 71 74 68 30 41 44 24 9 8 20 11 15 15 22 8 11 24 29 44 61 68 76 66 57 49 50
66 63 64 65 64 67 67 63 60 61 63 64 62 57 53 50 46 45 56 60 62 59 8 8 32 46 33 46 63 66 75 62 34 17 10 12 12 13 8 10 22 37 33 20 28 46 42 57 67 47 35 34 39 43
65 64 65 65 64 64 65 67 69 66 61 60 60 60 56 55 51 42 35 59 67 70 25 7 26 39 44 60 58 68 66 63 49 20 16 22 31 24 10 15 46 52 57 64 57 70 73 71 54 44 36 33 33 34
56 58 58 58 60 61 61 62 62 63 63 60 60 59 59 56 55 60 19 6 13 51 20 5 5 20 43 57 58 55 59 37 39 30 20 22 26 25 10 25 45 51 60 59 64 68 50 49 33 27 25 33 38 41
49 51 52 53 54 55 57 58 59 60 60 58 59 59 58 57 59 65 68 55 30 32 18 6 5 2 33 23 23 34 29 32 25 20 13 10 16 18 13 27 57 68 66 66 64 52 44 36 32 34 34 36 41 46
48 47 46 47 50 52 53 54 54 55 55 55 55 55 52 64 54 58 56 51 56 49 9 11 11 9 26 19 17 20 23 8 14 10 11 15 7 13 15 38 54 60 53 43 35 30 27 24 25 28 33 37 42 47
50 53 54 52 51 49 49 52 50 49 46 47 49 37 22 29 59 26 20 18 26 33 30 7 16 5 30 20 11 12 16 7 8 13 16 10 20 48 52 54 41 27 29 25 19 19 23 24 25 29 33 35 41 50
45 46 44 45 50 49 47 45 48 44 40 50 29 22 20 38 41 25 17 15 17 6 11 12 42 7 25 7 9 17 6 6 6 8 12 5 7 18 47 45 39 33 24 22 22 23 23 25 27 31 34 38 45 51
44 49 51 48 44 43 44 43 43 43 58 54 34 29 37 21 17 12 12 8 7 12 9 8 15 25 18 14 6 11 7 8 9 5 6 6 10 29 33 32 27 21 20 19 19 19 21 24 28 34 40 46 49 55
45 44 43 52 49 44 40 42 42 45 62 47 22 23 22 17 14 16 17 4 5 7 21 18 6 20 14 19 6 8 11 8 8 4 8 10 8 19 23 20 18 16 15 14 16 21 24 28 32 38 44 45 50 54
44 41 43 40 45 47 44 41 44 42 31 20 16 14 14 10 10 9 12 13 16 27 49 34 10 6 11 9 5 7 4 6 5 4 13 7 11 19 16 15 14 12 14 15 20 25 29 33 38 38 40 44 47 50
34 34 34 40 42 41 46 47 44 50 34 15 13 11 9 3 7 13 26 26 27 37 47 16 9 15 4 6 6 6 5 8 12 12 8 8 18 18 16 12 11 11 14 18 25 29 31 35 39 41 38 40 40 41
25 32 32 26 27 31 32 36 40 54 14 21 9 7 6 4 5 4 19 17 39 54 28 13 7 7 8 6 10 13 12 13 15 5 14 23 19 13 9 8 10 13 18 21 25 30 33 35 37 39 36 32 31 30
20 29 30 31 29 27 30 36 36 17 8 7 4 9 12 6 5 6 13 19 44 37 7 6 12 16 4 6 6 9 12 8 12 25 29 20 13 10 7 7 11 15 18 22 24 26 29 29 29 29 29 24 22 18
2 14 18 22 26 30 30 28 12 9 8 7 3 6 7 12 12 11 13 35 25 17 20 10 13 6 10 12 9 7 8 17 26 25 19 14 10 6 4 5 8 10 12 15 19 20 22 23 21 20 21 19 16 10
16 10 11 14 29 31 9 6 6 7 7 5 9 11 8 11 9 11 16 34 17 18 19 12 7 7 8 4 5 10 23 19 19 20 15 13 9 4 1 2 4 6 9 11 13 14 16 17 18 18 15 12 11 8
9 4 13 11 25 11 10 9 8 10 5 8 11 11 10 7 11 13 15 21 17 10 3 7 7 8 8 13 14 19 23 19 21 24 19 15 9 6 6 6 6 6 7 10 12 13 13 12 13 11 9 9 8 6
6 1 19 23 5 16 13 8 11 9 10 8 14 5 10 13 9 8 8 19 11 6 4 3 10 17 18 19 17 15 16 15 16 13 11 19 15 14 12 10 8 6 6 9 12 15 17 18 18 16 13 10 9 9
5 7 8 10 10 10 13 13 14 14 11 9 6 4 9 4 3 3 7 3 2 3 4 6 18 19 17 15 15 14 13 14 14 14 17 20 23 18 12 8 3 1 5 8 10 12 14 15 17 16 15 14 13 12
13 8 9 9 10 11 6 8 9 9 5 2 4 4 4 2 3 0 1 2 2 4 9 16 18 16 16 15 15 15 17 17 20 23 25 23 19 13 8 4 2 4 7 8 8 9 11 13 14 14 14 14 14 14
11 9 13 12 16 5 5 9 7 7 6 5 3 4 1 4 9 4 4 4 7 17 19 20 20 22 19 18 18 20 21 24 26 24 20 16 11 6 4 4 5 5 7 8 8 9 9 10 12 14 15 16 17 18
7 20 13 12 14 8 8 5 5 3 4 3 3 0 2 7 3 1 3 3 9 21 20 19 19 15 17 23 27 25 24 22 19 15 13 10 7 6 7 7 8 8 7 5 5 7 8 11 13 15 18 20 21 22
15 16 11 2 8 5 3 4 2 4 4 3 2 5 4 4 5 5 5 4 2 16 19 19 23 25 25 25 26 24 19 15 11 8 8 11 12 14 14 15 12 8 6 4 4 8 11 14 16 18 20 22 26 29
11 8 11 13 4 5 6 6 6 5 4 4 4 2 4 5 4 6 6 4 3 9 16 15 17 19 22 22 19 14 10 7 5 4 6 9 11 13 15 15 12 10 8 9 11 14 18 20 23 24 26 24 26 32
8 15 5 16 7 8 7 3 4 3 3 1 2 3 7 9 5 7 7 2 5 14 19 23 25 23 19 17 14 11 7 5 3 6 7 8 8 9 10 9 9 10 11 15 18 22 26 29 30 30 30 32 31 32
9 18 11 8 6 8 4 3 3 3 2 1 3 2 4 3 4 4 7 1 6 15 20 25 26 24 19 16 14 11 8 6 6 6 7 7 7 6 4 6 8 13 19 24 26 30 32 33 33 35 35 36 38 39
12 20 7 4 4 4 5 5 3 2 2 4 6 7 7 5 6 7 7 3 8 13 17 19 17 18 16 16 13 11 10 10 11 13 16 12 12 12 15 18 20 23 29 33 34 33 34 37 38 40 44 46 48 49
14 11 5 4 0 4 6 11 12 10 7 4 7 7 8 9 6 14 2 8 15 20 21 21 20 19 19 17 12 11 11 15 14 14 14 16 18 18 19 22 24 27 31 34 38 41 44 47 49 52 54 55 55 55
13 8 3 5 5 7 6 11 5 2 2 2 2 6 7 6 6 11 23 10 6 13 15 17 17 15 16 18 20 19 17 17 18 18 18 17 17 19 23 26 30 36 42 46 49 52 55 58 60 60 62 61 60 59
7 8 6 6 4 4 12 15 7 5 1 2 4 7 7 5 5 18 22 23 10 4 12 13 14 14 14 12 11 11 11 9 8 11 18 25 32 37 43 47 50 54 57 60 61 61 61 59 58 55 53 53 52 50
Wind_Direction_500mb
257 258 257 257 255 251 248 248 252 244 245 243 248 242 243 244 241 235 237 222 216 230 241 224 228 212 194 193 155 182 60 265 59 107 137 233 196 220 262 246 206 201 178 202 59 15 275 188 117 151 225 294 290 285
258 255 254 256 250 247 246 248 248 237 242 247 249 246 243 246 235 238 240 245 245 229 249 247 251 253 239 240 229 203 203 166 186 118 250 81 277 276 181 257 120 285 191 204 195 211 228 209 276 291 286 282 286 285
265 260 254 253 257 255 246 245 246 248 245 237 242 243 240 239 238 232 242 252 252 239 252 249 245 253 232 232 233 217 226 225 220 228 166 202 228 149 192 243 219 249 214 243 264 253 261 275 278 279 286 286 289 295
261 261 260 255 252 256 257 253 250 245 247 245 243 247 245 234 246 254 250 251 246 236 244 254 257 249 252 242 238 232 234 225 232 228 221 206 207 199 229 249 237 238 174 245 254 258 267 268 264 271 281 287 287 290
261 260 261 259 253 251 252 252 252 251 249 247 245 245 243 242 241 245 250 251 250 235 283 251 250 248 245 238 232 233 232 228 223 205 211 229 211 223 225 240 248 244 249 242 255 260 256 266 272 281 284 277 277 284
261 259 259 257 257 255 252 250 249 251 251 250 249 249 241 240 242 242 259 258 247 242 246 235 247 251 243 232 229 224 223 224 218 221 226 229 229 199 237 244 255 262 251 243 251 261 264 267 278 278 279 278 279 286
260 259 257 257 257 256 255 252 250 250 251 252 249 247 241 239 226 215 212 199 219 219 234 268 240 212 215 216 216 220 225 212 214 225 228 235 236 216 243 254 268 261 257 255 262 262 262 263 263 266 275 283 292 298
266 260 255 256 256 255 254 252 251 251 251 250 248 245 241 239 235 231 232 235 235 229 227 216 230 272 198 184 199 207 204 204 216 223 224 218 242 220 245 249 259 261 259 259 255 250 253 259 263 273 279 287 293 301
262 262 260 259 258 257 254 251 250 248 248 245 243 242 238 227 224 231 239 237 239 231 242 196 175 231 181 187 175 175 184 188 213 215 217 191 219 219 222 248 255 255 246 249 238 244 251 258 266 278 290 297 300 305
264 261 262 261 260 259 255 247 244 245 246 239 231 220 209 203 217 197 186 202 212 213 215 203 190 197 173 168 180 145 184 210 202 216 180 213 239 243 256 259 258 251 241 238 238 249 252 255 270 285 294 301 305 307
270 270 267 258 256 257 248 247 242 243 238 230 215 203 178 168 166 177 191 195 198 220 216 193 194 148 184 151 183 211 198 189 218 242 172 252 266 240 243 248 249 246 238 241 249 258 269 276 287 292 297 301 304 307
265 259 259 262 263 253 246 240 239 232 227 227 212 168 159 184 170 183 181 167 166 211 184 145 192 191 168 176 151 183 198 186 229 119 114 265 249 246 227 227 235 242 248 251 255 264 274 283 290 295 300 303 305 305
262 258 258 252 248 248 253 237 235 234 227 211 198 171 166 176 198 181 171 220 143 173 172 172 194 164 154 187 190 193 206 216 112 123 218 226 214 220 214 218 224 230 241 253 266 278 287 292 294 297 300 303 302 302
260 257 252 252 245 244 242 243 232 236 223 179 180 200 193 172 197 180 170 165 191 177 173 164 122 156 173 181 186 209 119 132 164 204 232 236 206 188 190 196 208 228 255 274 283 289 295 299 301 302 303 305 306 307
263 252 248 252 247 240 233 235 229 223 218 221 190 214 202 147 105 181 176 150 166 181 155 126 118 155 199 216 206 121 158 228 202 222 226 173 160 165 175 196 227 258 281 295 300 305 308 308 308 310 312 309 305 303
272 245 239 246 242 238 231 226 221 224 220 192 165 130 70 73 343 182 185 159 163 161 137 127 133 171 197 196 193 209 151 218 243 205 146 153 159 173 192 227 262 286 297 306 312 313 313 314 313 313 315 313 307 304
251 245 238 238 240 233 224 223 217 201 172 113 85 121 129 77 124 160 171 157 153 150 157 129 159 204 90 183 221 191 206 236 173 148 151 159 178 198 223 265 297 312 314 312 316 317 317 316 315 314 318 324 318 313
236 228 236 234 219 206 203 194 182 120 72 53 127 123 96 120 143 162 176 159 161 186 142 187 126 166 187 183 241 216 161 146 144 152 159 170 185 208 250 283 303 320 327 330 332 334 329 323 323 324 324 330 331 329
344 293 239 210 200 182 148 86 54 88 77 88 113 136 129 124 137 169 178 181 171 156 147 155 163 185 217 197 182 172 164 155 166 166 172 181 187 192 342 9 3 3 4 5 1 354 351 345 338 335 334 338 343 350
314 313 188 194 200 132 92 56 73 90 115 139 119 118 103 100 137 146 163 170 157 152 202 213 200 158 144 150 140 142 153 156 156 156 174 181 171 153 142 127 105 70 44 35 27 24 25 20 9 3 357 357 5 31
283 314 170 184 106 80 95 100 73 88 111 99 121 125 110 119 138 141 151 160 194 195 228 209 136 139 139 135 133 144 159 172 188 190 184 176 166 152 147 134 112 92 70 56 45 39 33 31 30 28 27 32 36 36
148 144 131 115 84 73 78 64 114 125 121 122 145 107 70 73 30 65 135 169 183 169 155 151 154 146 153 158 158 163 171 180 181 172 162 157 158 156 156 156 145 17 21 22 22 23 24 28 29 30 30 31 28 27
129 113 76 68 91 57 32 55 61 38 81 36 50 79 47 47 12 77 228 240 158 172 162 160 163 164 165 159 156 160 161 161 156 154 155 160 166 174 184 206 269 342 345 344 349 357 3 10 9 8 12 13 14 12
103 61 38 45 43 75 75 41 58 75 78 50 58 107 107 348 353 48 236 270 178 174 168 168 167 160 154 154 155 149 149 148 148 152 159 167 177 191 226 278 302 298 323 333 341 346 346 355 4 7 7 7 3 360
95 12 20 13 26 46 50 43 17 70 94 44 111 35 290 347 72 6 234 274 186 181 175 168 163 160 157 150 146 143 141 145 150 160 169 176 201 242 264 289 295 294 292 319 348 1 5 7 7 5 4 2 359 358
67 4 38 304 350 54 8 96 66 160 121 81 238 283 335 86 63 268 248 335 261 202 192 183 170 159 152 147 145 146 150 157 170 203 242 256 259 265 273 278 277 282 264 267 318 334 341 343 343 344 346 344 342 342
58 339 17 32 26 91 83 62 88 89 91 147 229 62 74 79 261 261 360 14 76 145 160 155 152 147 145 149 150 157 169 185 209 245 266 280 281 281 276 272 262 262 258 281 302 315 323 327 329 330 333 339 340 336
75 26 56 337 18 31 129 69 63 90 233 193 100 53 133 170 226 3 9 67 129 149 158 156 157 159 161 171 180 185 193 199 252 291 293 291 293 291 283 270 257 267 281 296 306 312 316 319 321 322 325 329 337 339
36 356 354 6 14 44 60 110 202 54 57 338 119 292 277 305 348 21 21 203 170 172 176 178 178 177 178 186 193 203 207 234 260 289 301 302 307 315 319 311 304 301 300 302 306 310 311 310 311 312 316 319 324 327
1 357 357 22 51 20 355 31 38 25 317 308 306 303 299 318 328 305 272 241 182 185 188 192 200 208 210 215 222 237 249 265 279 291 301 302 290 291 296 299 299 297 297 302 307 307 304 302 302 301 303 306 309 311
345 344 348 30 218 21 350 326 310 297 275 294 276 276 302 323 31 31 342 211 198 194 199 209 218 223 226 230 245 264 265 270 275 274 278 286 292 296 295 295 298 300 302 305 306 306 306 302 301 300 299 300 302 303
339 22 45 3 324 354 356 352 317 316 293 314 329 331 340 339 36 45 18 15 242 225 220 224 230 237 243 240 245 256 268 269 275 283 292 300 305 306 303 302 302 303 303 303 303 304 303 302 300 299 298 298 299 300
320 348 350 326 342 16 356 352 21 16 48 45 35 14 21 39 73 19 11 16 15 209 215 219 223 229 242 258 266 272 281 288 293 308 312 310 308 306 303 301 298 297 297 298 299 301 301 301 300 300 300 300 302 303
Wind_Speed_850mb
57 57 55 53 55 53 54 55 53 56 47 46 46 49 59 56 47 52 62 59 60 32 52 37 48 39 22 24 9 12 5 4 6 4 7 7 7 8 2 8 7 8 7 6 5 2 15 11 3 9 10 30 39 35
57 57 57 59 58 56 56 58 53 53 53 55 58 52 42 40 64 46 55 55 50 53 28 37 68 72 66 54 35 36 21 16 22 5 1 3 4 2 6 7 4 6 11 9 18 11 6 11 26 67 64 54 64 50
59 57 61 59 63 64 63 60 57 56 58 54 49 57 56 54 51 57 61 61 52 50 51 48 65 83 60 61 55 36 30 47 35 31 12 8 12 7 6 12 8 10 19 17 21 23 30 59 69 67 66 66 65 58
61 65 63 62 65 61 61 60 59 62 58 53 54 56 55 47 44 45 53 59 54 32 15 32 44 61 71 65 71 74 68 30 41 44 24 9 8 20 11 15 15 22 8 11 24 29 44 61 68 76 66 57 49 50
66 63 64 65 64 67 67 63 60 61 63 64 62 57 53 50 46 45 56 60 62 59 8 8 32 46 33 46 63 66 75 62 34 17 10 12 12 13 8 10 22 37 33 20 28 46 42 57 67 47 35 34 39 43
65 64 65 65 64 64 65 67 69 66 61 60 60 60 56 55 51 42 35 59 67 70 25 7 26 39 44 60 58 68 66 63 49 20 16 22 31 24 10 15 46 52 57 64 57 70 73 71 54 44 36 33 33 34
56 58 58 58 60 61 61 62 62 63 63 60 60 59 59 56 55 60 19 6 13 51 20 5 5 20 43 57 58 55 59 37 39 30 20 22 26 25 10 25 45 51 60 59 64 68 50 49 33 27 25 33 38 41
49 51 52 53 54 55 57 58 59 60 60 58 59 59 58 57 59 65 68 55 30 32 18 6 5 2 33 23 23 34 29 32 25 20 13 10 16 18 13 27 57 68 66 66 64 52 44 36 32 34 34 36 41 46
48 47 46 47 50 52 53 54 54 55 55 55 55 55 52 64 54 58 56 51 56 49 9 11 11 9 26 19 17 20 23 8 14 10 11 15 7 13 15 38 54 60 53 43 35 30 27 24 25 28 33 37 42 47
50 53 54 52 51 49 49 52 50 49 46 47 49 37 22 29 59 26 20 18 26 33 30 7 16 5 30 20 11 12 16 7 8 13 16 10 20 48 52 54 41 27 29 25 19 19 23 24 25 29 33 35 41 50
45 46 44 45 50 49 47 45 48 44 40 50 29 22 20 38 41 25 17 15 17 6 11 12 42 7 25 7 9 17 6 6 6 8 12 5 7 18 47 45 39 33 24 22 22 23 23 25 27 31 34 38 45 51
44 49 51 48 44 43 44 43 43 43 58 54 34 29 37 21 17 12 12 8 7 12 9 8 15 25 18 14 6 11 7 8 9 5 6 6 10 29 33 32 27 21 20 19 19 19 21 24 28 34 40 46 49 55
45 44 43 52 49 44 40 42 42 45 62 47 22 23 22 17 14 16 17 4 5 7 21 18 6 20 14 19 6 8 11 8 8 4 8 10 8 19 23 20 18 16 15 14 16 21 24 28 32 38 44 45 50 54
44 41 43 40 45 47 44 41 44 42 31 20 16 14 14 10 10 9 12 13 16 27 49 34 10 6 11 9 5 7 4 6 5 4 13 7 11 19 16 15 14 12 14 15 20 25 29 33 38 38 40 44 47 50
34 34 34 40 42 41 46 47 44 50 34 15 13 11 9 3 7 13 26 26 27 37 47 16 9 15 4 6 6 6 5 8 12 12 8 8 18 18 16 12 11 11 14 18 25 29 31 35 39 41 38 40 40 41
25 32 32 26 27 31 32 36 40 54 14 21 9 7 6 4 5 4 19 17 39 54 28 13 7 7 8 6 10 13 12 13 15 5 14 23 19 13 9 8 10 13 18 21 25 30 33 35 37 39 36 32 31 30
20 29 30 31 29 27 30 36 36 17 8 7 4 9 12 6 5 6 13 19 44 37 7 6 12 16 4 6 6 9 12 8 12 25 29 20 13 10 7 7 11 15 18 22 24 26 29 29 29 29 29 24 22 18
2 14 18 22 26 30 30 28 12 9 8 7 3 6 7 12 12 11 13 35 25 17 20 10 13 6 10 12 9 7 8 17 26 25 19 14 10 6 4 5 8 10 12 15 19 20 22 23 21 20 21 19 16 10
16 10 11 14 29 31 9 6 6 7 7 5 9 11 8 11 9 11 16 34 17 18 19 12 7 7 8 4 5 10 23 19 19 20 15 13 9 4 1 2 4 6 9 11 13 14 16 17 18 18 15 12 11 8
9 4 13 11 25 11 10 9 8 10 5 8 11 11 10 7 11 13 15 21 17 10 3 7 7 8 8 13 14 19 23 19 21 24 19 15 9 6 6 6 6 6 7 10 12 13 13 12 13 11 9 9 8 6
6 1 19 23 5 16 13 8 11 9 10 8 14 5 10 13 9 8 8 19 11 6 4 3 10 17 18 19 17 15 16 15 16 13 11 19 15 14 12 10 8 6 6 9 12 15 17 18 18 16 13 10 9 9
5 7 8 10 10 10 13 13 14 14 11 9 6 4 9 4 3 3 7 3 2 3 4 6 18 19 17 15 15 14 13 14 14 14 17 20 23 18 12 8 3 1 5 8 10 12 14 15 17 16 15 14 13 12
13 8 9 9 10 11 6 8 9 9 5 2 4 4 4 2 3 0 1 2 2 4 9 16 18 16 16 15 15 15 17 17 20 23 25 23 19 13 8 4 2 4 7 8 8 9 11 13 14 14 14 14 14 14
11 9 13 12 16 5 5 9 7 7 6 5 3 4 1 4 9 4 4 4 7 17 19 20 20 22 19 18 18 20 21 24 26 24 20 16 11 6 4 4 5 5 7 8 8 9 9 10 12 14 15 16 17 18
7 20 13 12 14 8 8 5 5 3 4 3 3 0 2 7 3 1 3 3 9 21 20 19 19 15 17 23 27 25 24 22 19 15 13 10 7 6 7 7 8 8 7 5 5 7 8 11 13 15 18 20 21 22
15 16 11 2 8 5 3 4 2 4 4 3 2 5 4 4 5 5 5 4 2 16 19 19 23 25 25 25 26 24 19 15 11 8 8 11 12 14 14 15 12 8 6 4 4 8 11 14 16 18 20 22 26 29
11 8 11 13 4 5 6 6 6 5 4 4 4 2 4 5 4 6 6 4 3 9 16 15 17 19 22 22 19 14 10 7 5 4 6 9 11 13 15 15 12 10 8 9 11 14 18 20 23 24 26 24 26 32
8 15 5 16 7 8 7 3 4 3 3 1 2 3 7 9 5 7 7 2 5 14 19 23 25 23 19 17 14 11 7 5 3 6 7 8 8 9 10 9 9 10 11 15 18 22 26 29 30 30 30 32 31 32
9 18 11 8 6 8 4 3 3 3 2 1 3 2 4 3 4 4 7 1 6 15 20 25 26 24 19 16 14 11 8 6 6 6 7 7 7 6 4 6 8 13 19 24 26 30 32 33 33 35 35 36 38 39
12 20 7 4 4 4 5 5 3 2 2 4 6 7 7 5 6 7 7 3 8 13 17 19 17 18 16 16 13 11 10 10 11 13 16 12 12 12 15 18 20 23 29 33 34 33 34 37 38 40 44 46 48 49
14 11 5 4 0 4 6 11 12 10 7 4 7 7 8 9 6 14 2 8 15 20 21 21 20 19 19 17 12 11 11 15 14 14 14 16 18 18 19 22 24 27 31 34 38 41 44 47 49 52 54 55 55 55
13 8 3 5 5 7 6 11 5 2 2 2 2 6 7 6 6 11 23 10 6 13 15 17 17 15 16 18 20 19 17 17 18 18 18 17 17 19 23 26 30 36 42 46 49 52 55 58 60 60 62 61 60 59
7 8 6 6 4 4 12 15 7 5 1 2 4 7 7 5 5 18 22 23 10 4 12 13 14 14 14 12 11 11 11 9 8 11 18 25 32 37 43 47 50 54 57 60 61 61 61 59 58 55 53 53 52 50
Wind_Direction_850mb
257 258 257 257 255 251 248 248 252 244 245 243 248 242 243 244 241 235 237 222 216 230 241 224 228 212 194 193 155 182 60 265 59 107 137 233 196 220 262 246 206 201 178 202 59 15 275 188 117 151 225 294 290 285
258 255 254 256 250 247 246 248 248 237 242 247 249 246 243 246 235 238 240 245 245 229 249 247 251 253 239 240 229 203 203 166 186 118 250 81 277 276 181 257 120 285 191 204 195 211 228 209 276 291 286 282 286 285
265 260 254 253 257 255 246 245 246 248 245 237 242 243 240 239 238 232 242 252 252 239 252 249 245 253 232 232 233 217 226 225 220 228 166 202 228 149 192 243 219 249 214 243 264 253 261 275 278 279 286 286 289 295
261 261 260 255 252 256 257 253 250 245 247 245 243 247 245 234 246 254 250 251 246 236 244 254 257 249 252 242 238 232 234 225 232 228 221 206 207 199 229 249 237 238 174 245 254 258 267 268 264 271 281 287 287 290
261 260 261 259 253 251 252 252 252 251 249 247 245 245 243 242 241 245 250 251 250 235 283 251 250 248 245 238 232 233 232 228 223 205 211 229 211 223 225 240 248 244 249 242 255 260 256 266 272 281 284 277 277 284
261 259 259 257 257 255 252 250 249 251 251 250 249 249 241 240 242 242 259 258 247 242 246 235 247 251 243 232 229 224 223 224 218 221 226 229 229 199 237 244 255 262 251 243 251 261 264 267 278 278 279 278 279 286
260 259 257 257 257 256 255 252 250 250 251 252 249 247 241 239 226 215 212 199 219 219 234 268 240 212 215 216 216 220 225 212 214 225 228 235 236 216 243 254 268 261 257 255 262 262 262 263 263 266 275 283 292 298
266 260 255 256 256 255 254 252 251 251 251 250 248 245 241 239 235 231 232 235 235 229 227 216 230 272 198 184 199 207 204 204 216 223 224 218 242 220 245 249 259 261 259 259 255 250 253 259 263 273 279 287 293 301
262 262 260 259 258 257 254 251 250 248 248 245 243 242 238 227 224 231 239 237 239 231 242 196 175 231 181 187 175 175 184 188 213 215 217 191 219 219 222 248 255 255 246 249 238 244 251 258 266 278 290 297 300 305
264 261 262 261 260 259 255 247 244 245 246 239 231 220 209 203 217 197 186 202 212 213 215 203 190 197 173 168 180 145 184 210 202 216 180 213 239 243 256 259 258 251 241 238 238 249 252 255 270 285 294 301 305 307
270 270 267 258 256 257 248 247 242 243 238 230 215 203 178 168 166 177 191 195 198 220 216 193 194 148 184 151 183 211 198 189 218 242 172 252 266 240 243 248 249 246 238 241 249 258 269 276 287 292 297 301 304 307
265 259 259 262 263 253 246 240 239 232 227 227 212 168 159 184 170 183 181 167 166 211 184 145 192 191 168 176 151 183 198 186 229 119 114 265 249 246 227 227 235 242 248 251 255 264 274 283 290 295 300 303 305 305
262 258 258 252 248 248 253 237 235 234 227 211 198 171 166 176 198 181 171 220 143 173 172 172 194 164 154 187 190 193 206 216 112 123 218 226 214 220 214 218 224 230 241 253 266 278 287 292 294 297 300 303 302 302
260 257 252 252 245 244 242 243 232 236 223 179 180 200 193 172 197 180 170 165 191 177 173 164 122 156 173 181 186 209 119 132 164 204 232 236 206 188 190 196 208 228 255 274 283 289 295 299 301 302 303 305 306 307
263 252 248 252 247 240 233 235 229 223 218 221 190 214 202 147 105 181 176 150 166 181 155 126 118 155 199 216 206 121 158 228 202 222 226 173 160 165 175 196 227 258 281 295 300 305 308 308 308 310 312 309 305 303
272 245 239 246 242 238 231 226 221 224 220 192 165 130 70 73 343 182 185 159 163 161 137 127 133 171 197 196 193 209 151 218 243 205 146 153 159 173 192 227 262 286 297 306 312 313 313 314 313 313 315 313 307 304
251 245 238 238 240 233 224 223 217 201 172 113 85 121 129 77 124 160 171 157 153 150 157 129 159 204 90 183 221 191 206 236 173 148 151 159 178 198 223 265 297 312 314 312 316 317 317 316 315 314 318 324 318 313
236 228 236 234 219 206 203 194 182 120 72 53 127 123 96 120 143 162 176 159 161 186 142 187 126 166 187 183 241 216 161 146 144 152 159 170 185 208 250 283 303 320 327 330 332 334 329 323 323 324 324 330 331 329
344 293 239 210 200 182 148 86 54 88 77 88 113 136 129 124 137 169 178 181 171 156 147 155 163 185 217 197 182 172 164 155 166 166 172 181 187 192 342 9 3 3 4 5 1 354 351 345 338 335 334 338 343 350
314 313 188 194 200 132 92 56 73 90 115 139 119 118 103 100 137 146 163 170 157 152 202 213 200 158 144 150 140 142 153 156 156 156 174 181 171 153 142 127 105 70 44 35 27 24 25 20 9 3 357 357 5 31
283 314 170 184 106 80 95 100 73 88 111 99 121 125 110 119 138 141 151 160 194 195 228 209 136 139 139 135 133 144 159 172 188 190 184 176 166 152 147 134 112 92 70 56 45 39 33 31 30 28 27 32 36 36
148 144 131 115 84 73 78 64 114 125 121 122 145 107 70 73 30 65 135 169 183 169 155 151 154 146 153 158 158 163 171 180 181 172 162 157 158 156 156 156 145 17 21 22 22 23 24 28 29 30 30 31 28 27
129 113 76 68 91 57 32 55 61 38 81 36 50 79 47 47 12 77 228 240 158 172 162 160 163 164 165 159 156 160 161 161 156 154 155 160 166 174 184 206 269 342 345 344 349 357 3 10 9 8 12 13 14 12
103 61 38 45 43 75 75 41 58 75 78 50 58 107 107 348 353 48 236 270 178 174 168 168 167 160 154 154 155 149 149 148 148 152 159 167 177 191 226 278 302 298 323 333 341 346 346 355 4 7 7 7 3 360
95 12 20 13 26 46 50 43 17 70 94 44 111 35 290 347 72 6 234 274 186 181 175 168 163 160 157 150 146 143 141 145 150 160 169 176 201 242 264 289 295 294 292 319 348 1 5 7 7 5 4 2 359 358
67 4 38 304 350 54 8 96 66 160 121 81 238 283 335 86 63 268 248 335 261 202 192 183 170 159 152 147 145 146 150 157 170 203 242 256 259 265 273 278 277 282 264 267 318 334 341 343 343 344 346 344 342 342
58 339 17 32 26 91 83 62 88 89 91 147 229 62 74 79 261 261 360 14 76 145 160 155 152 147 145 149 150 157 169 185 209 245 266 280 281 281 276 272 262 262 258 281 302 315 323 327 329 330 333 339 340 336
75 26 56 337 18 31 129 69 63 90 233 193 100 53 133 170 226 3 9 67 129 149 158 156 157 159 161 171 180 185 193 199 252 291 293 291 293 291 283 270 257 267 281 296 306 312 316 319 321 322 325 329 337 339
36 356 354 6 14 44 60 110 202 54 57 338 119 292 277 305 348 21 21 203 170 172 176 178 178 177 178 186 193 203 207 234 260 289 301 302 307 315 319 311 304 301 300 302 306 310 311 310 311 312 316 319 324 327
1 357 357 22 51 20 355 31 38 25 317 308 306 303 299 318 328 305 272 241 182 185 188 192 200 208 210 215 222 237 249 265 279 291 301 302 290 291 296 299 299 297 297 302 307 307 304 302 302 301 303 306 309 311
345 344 348 30 218 21 350 326 310 297 275 294 276 276 302 323 31 31 342 211 198 194 199 209 218 223 226 230 245 264 265 270 275 274 278 286 292 296 295 295 298 300 302 305 306 306 306 302 301 300 299 300 302 303
339 22 45 3 324 354 356 352 317 316 293 314 329 331 340 339 36 45 18 15 242 225 220 224 230 237 243 240 245 256 268 269 275 283 292 300 305 306 303 302 302 303 303 303 303 304 303 302 300 299 298 298 299 300
320 348 350 326 342 16 356 352 21 16 48 45 35 14 21 39 73 19 11 16 15 209 215 219 223 229 242 258 266 272 281 288 293 308 312 310 308 306 303 301 298 297 297 298 299 301 301 301 300 300 300 300 302 303